www.pogodaiklimat.ru

Погода и климат >> Архив погоды >> Россия >> Эвенкия >> Байкит


АРХИВ ПОГОДЫ в Байките

Время (UTC), дата Ветер
(напр.,м/с)
 
Видим.   Явления Облачность Т
(С)
Тd
(С)
f
(%)
Тe
(С)
Тes
(С)
Комфортность P
(гПа)
Po
(гПа)
Тmin
(С)
Tmax
(С)
R
(мм)
R24
(мм)
S
(см)
03 13.08 СЗ 4
{10}
50 км 10/6 1000 м
[Cu Sc Cs]
+14.0 +8.4 69 +13 +14 1007.9 978.7
06 13.08 СВ 1 20 км 10/10 600 м
[Cb cap]
+15.6 +10.5 72 +16 +16 1008.6 979.5
09 13.08 Ю 1 4000 м слаб. ливневой дождь 10/10 300 м
[Cb cap]
+12.2 +11.1 93 +12 +12 1011.1 981.7
12 13.08 штиль 0 4000 м {ливн. осадки} 10/10 300 м
[Cb cap]
+12.4 +11.5 94 +12 +12 1012.9 983.4 +16.1 0.3
15 13.08 С 2 4000 м 9/8 600 м
[Cb cap Ci fib]
+12.0 +10.9 93 +11 +11 1013.6 984.0
18 13.08 З 1 4000 м 10/6 600 м
[Cb cap Cs]
+10.9 +10.1 95 +10 +10 1014.5 984.8
21 13.08 штиль 0 2000 м дымка 10/8 1000 м
[Sc Cs]
+8.2 +7.8 97 +7 +7 1015.9 985.8
00 14.08 штиль 0 50 м туман ?/? +7.8 +7.8 100 +7 +7 1017.1 987.0 +7.6
03 14.08 ЮВ 1 50 км в посл. час туман 6/3 1000 м
[Sc Ci fib]
+11.2 +9.2 87 +11 +16 1016.8 987.1
06 14.08 Ю 1 50 км {туман} 10/3 1000 м
[Sc Cs]
+19.4 +12.5 64 +22 +28 комфорт 1015.6 986.8
09 14.08 Ю 1 50 км 4/4 600 м
[Cb cap]
+21.8 +13.9 61 +25 +29 комфорт 1014.8 986.3
12 14.08 штиль 0 20 км 5/4 1000 м
[Cb cap Ac trans]
+20.2 +13.6 66 +22 +23 комфорт 1015.0 986.3 +22.4
15 14.08 СЗ 1 4000 м дым 9/9 600 м
[Cb cap]
+17.5 +15.5 88 +19 +19 1016.1 987.1
18 14.08 штиль 0 4000 м дымка 8/0
[Ac cast]
+14.2 +13.3 94 +14 +14 1017.1 987.8
21 14.08 штиль 0 <100 м туман ?/? +12.6 +12.6 100 +12 +12 1017.9 988.4
00 15.08 штиль 0 50 м туман 6/3 1000 м
[Sc Ci fib]
+12.4 +12.4 100 +12 +13 1018.5 988.9 +11.6
03 15.08 В 1 10 км дымка {туман} 8/1 600 м
[Sc Ac trans]
+17.0 +14.2 84 +18 +22 1018.6 989.5
06 15.08 СЗ 3 10 км дым {туман} 8/8 1000 м
[Cb cap Ci fib]
+19.0 +12.2 65 +20 +22 1018.2 989.3
09 15.08 СВ 2 10 км дым 6/6 1000 м
[Cb cap]
+20.1 +12.3 61 +23 +25 комфорт 1017.3 988.5
12 15.08 С 3 10 км дым 8/1 600 м
[Sc Ci sp]
+18.4 +11.5 64 +19 +19 1017.6 988.6 +22.2
15 15.08 С 2 4000 м дым 9/8 600 м
[Cb cap Ci fib]
+16.3 +11.1 71 +16 +16 1018.6 989.4
18 15.08 С 2 4000 м дым 9/6 1000 м
[Sc Ci fib]
+15.4 +10.7 74 +15 +15 1019.0 989.7
21 15.08 С 1 10 км дым 6/1 1000 м
[Sc Ac trans Ci sp]
+11.8 +10.0 89 +12 +12 1019.5 989.8
00 16.08 С 1 10 км дым 9/6 600 м
[Cb cap Ac trans Ci fib]
+13.7 +10.9 83 +14 +14 1020.0 990.5 +11.2
03 16.08 штиль 0 10 км дым 9/6 600 м
[Cb cap Ac trans]
+16.8 +11.3 70 +17 +19 1019.4 990.2
06 16.08 ЮВ 1 10 км дым 6/3 600 м
[Cb cap Ac trans]
+21.2 +11.5 54 +23 +29 комфорт 1017.8 989.1
09 16.08 СВ 2 10 км дым 9/6 600 м
[Cb cap Ac trans]
+20.4 +8.4 46 +22 +23 комфорт 1016.8 988.1
12 16.08 В 1 20 км дым 8/3 600 м
[Cb cap Ac trans]
+19.8 +8.3 47 +22 +22 комфорт 1016.6 987.8 +25.5
15 16.08 С 1 20 км дым 5/0
[Ac trans]
+15.3 +10.0 71 +16 +16 1017.6 988.4
18 16.08 СЗ 1 4000 м дым 3/1 1000 м
[Sc Ac trans]
+11.0 +8.4 84 +11 +11 1018.8 989.0
21 16.08 штиль 0 10 км дым 8/1 600 м
[Sc Ac trans]
+10.3 +8.9 91 +10 +10 1019.0 989.1
00 17.08 штиль 0 4000 м дымка 8/1 600 м
[Sc Ac trans]
+8.8 +8.8 100 +8 +9 1019.8 989.7 +8.0
03 17.08 ЮВ 1 10 км дым 9/4 1000 м
[Sc Ac trans]
+12.7 +10.0 84 +13 +15 1019.0 989.4
06 17.08 СВ 1 20 км дым 8/3 1000 м
[Sc Ac trans Cs]
+19.4 +8.7 50 +21 +26 комфорт 1017.4 988.5
09 17.08 СВ 2 10 км дым 9/8 1000 м
[Cb cap Ac trans]
+20.0 +7.8 45 +22 +22 комфорт 1016.8 988.0
12 17.08 штиль 0 10 км дым 9/8 1000 м
[Sc Ac trans]
+19.1 +10.2 56 +20 +20 1017.0 988.1 +20.8
15 17.08 штиль 0 4000 м дым ясно +13.8 +9.5 75 +13 +13 1018.2 988.7
18 17.08 штиль 0 4000 м дым 3/0
[Ci sp]
+9.0 +7.5 90 +8 +8 1018.6 988.5
21 17.08 штиль 0 2000 м дымка ясно +8.1 +7.0 93 +7 +7 1018.5 988.4
00 18.08 штиль 0 50 м туман ?/? +7.6 +7.6 100 +6 +6 1018.4 988.3 +7.6
03 18.08 штиль 0 10 км дым {туман} ясно +13.9 +10.3 79 +14 +23 1017.1 987.7
06 18.08 СВ 3 20 км {туман} 3/3 1000 м
[Cb cap]
+23.1 +8.0 38 +24 +30 комфорт 1014.6 986.1
09 18.08 СВ 2 20 км 4/4 1000 м
[Cu med, cong]
+23.8 +8.5 38 +24 +27 комфорт 1013.2 984.8
12 18.08 С 2 20 км 1/1 1500 м
[Cu hum]
+22.2 +9.7 45 +24 +24 комфорт 1013.3 984.8 +24.8
15 18.08 С 1 4000 м дым 3/0
[Ac trans Ci fib]
+15.8 +7.6 58 +17 +17 1014.4 985.3
18 18.08 штиль 0 4000 м дымка ясно +8.9 +7.9 93 +8 +8 1015.7 985.7
21 18.08 штиль 0 500 м туман ясно +6.4 +6.4 100 +5 +5 1016.3 986.0
00 19.08 штиль 0 50 м туман ?/? +6.3 +6.3 100 +5 +5 1017.1 986.8 +5.8
03 19.08 ЮВ 1 4000 м дымка {туман} ясно +11.2 +9.2 87 +11 +19 1016.4 986.6
06 19.08 ЮВ 1 20 км {туман} 1/0
[Ci fib]
+20.0 +9.5 51 +22 +33 комфорт 1014.8 986.0
09 19.08 штиль 0 10 км дым 3/0
[Ci fib]
+24.2 +9.6 40 +25 +31 комфорт 1013.7 985.4
12 19.08 штиль 0 10 км дым 1/0
[Ci fib]
+22.2 +7.7 39 +23 +24 комфорт 1013.9 985.4 +25.0
15 19.08 С 1 4000 м дым ясно +13.7 +8.3 70 +14 +14 1015.9 986.5
18 19.08 штиль 0 4000 м дым ясно +8.6 +7.1 90 +8 +8 1017.4 987.4
21 19.08 С 1 2000 м дымка ясно +5.6 +5.1 97 +4 +4 1018.1 987.8
00 20.08 штиль 0 50 м туман ?/? +5.1 +4.9 99 +4 +4 1018.5 988.1 +5.1

 

Местоположение метеостанции Байкит (Эвенкия, Россия): широта 61.67 долгота 96.37 высота над уровнем моря 248 м.

В архиве по умолчанию представлена погода в Байките за последнюю неделю. Архивные данные за месяц целиком и за предыдущие месяцы, начиная с января 2011 года, Вы можете получить, выбрав интересующий диапазон дат из раскрывающегося списка и нажав кнопку "Ввод!".


*Определитесь, кто Вы:
робот инопланетянин человек

Внимание! Время в таблицах - всемирное. Для получения местного времени необходимо прибавить поправку, которая равна 7 ч.

Смотрите также архив погоды в соседних городах и на ближайших метеорологических станциях:

Погода в Усть-Камо (Эвенкия, Россия) (122 км)
Погода в Вельмо (Красноярский край, Россия) (173 км)
Погода в Муторае (Эвенкия, Россия) (217 км)
Погода в Северо-Енисейском (Красноярский край, Россия) (230 км)
Погода в Кузьмовке (Эвенкия, Россия) (233 км)
Погода в Кербо (Эвенкия, Россия) (272 км)
Погода в Тутончанах (Эвенкия, Россия) (310 км)
Погода в Бору (Красноярский край, Россия) (336 км)
Погода в Стрелке-Чуне (Эвенкия, Россия) (339 км)
Погода в Ванаваре (Эвенкия, Россия) (353 км)

Пояснения к столбцам:

Ветер - указаны скорость ветра в м/с - средняя за 10 мин, порывы в срок и между сроками (в фигурных скобках) и направление, откуда дует ветер: С - северный, СВ - северо-восточный, В - восточный, ЮВ - юго-восточный, Ю - южный, ЮЗ - юго-западный, З - западный, СЗ - северо-западный.
Видимость - горизонтальная дальность видимости в метрах или километрах. При видимости от 1 до 10 км при отсутствии осадков обычно наблюдается дымка, при ухудшении видимости до 1 км и менее - туман. В сухую погоду видимость может ухудшаться дымом, пылью или мглою.
Явления - указаны атмосферные явления, наблюдавшиеся в срок или в последний час перед сроком; фигурными скобками обозначены явления, наблюдавшиеся между сроками (за 1-3 часа до срока); квадратными скобками обозначены град или гололедные отложения с указанием их диаметра в мм.
Облачность - указаны через наклонную черту общая и нижняя облачность в баллах и высота нижней границы облаков в метрах; квадратными скобками обозначены формы облаков: Ci - перистые, Cs - перисто-слоистые, Cc - перисто-кучевые, Ac - высококучевые, As - высокослоистые, Sc - слоисто-кучевые, Ns - слоисто-дождевые, Cu - кучевые, Cb - кучево-дождевые. Подробнее классификацию облаков см. в Атласе облаков (PDF).
T - Температура воздуха - температура, измеренная на высоте 2 м над землей.
Td - Температура точки росы - температура, при понижении до которой содержащийся в воздухе водяной пар достигнет насыщения.
f - Относительная влажность воздуха - влажноcть воздуха, измеренная на высоте 2 м над землей.
Te - Эффективная температура - температура, которую ощущает одетый по сезону человек в тени. Характеристика душности погоды. При расчете учитывается влияние влажности воздуха и скорости ветра на теплоощущения человека.
Tes - Эффективная температура на солнце - температура, которую ощущает человек, с поправкой на солнечный нагрев. Характеристика знойности погоды. Зависит от высоты солнца над горизонтом, облачности и скорости ветра. Ночью, в пасмурную погоду, а также при ветре 12 м/с и более поправка равна нулю.
P - Атмосферное давление - приведенное к уровню моря атмосферное давление.
Po - Атмосферное давление - измеренное на уровне метеостанции атмосферное давление.
Tmin - Минимальная температура - минимум температуры воздуха на высоте 2 м над землей.
Tmax - Максимальная температура - максимум температуры воздуха на высоте 2 м над землей.
R - Количество осадков - Количество выпавших осадков за период времени, мм. При наведении курсора мыши на число - период времени, за который выпало указанное количество осадков.
R24 - Количество осадков - Количество выпавших осадков за 24 часа, мм.
S - Снежный покров - Высота снежного покрова, см. При наведении курсора мыши на число - состояние снежного покрова и степень покрытия местности в баллах.